Location: ???????
(55.4362°N, 38.1183°E)
Time: 03:38:34
(UTC+00:00)

Helios 1A - Pass Details

Date: 17 June 2021
Orbit: 584 x 601 km, 98.2° (Epoch: 23 July)

Event Time Altitude Azimuth Distance (km) Brightness Sun altitude
Exits shadow 23:05:07 11° 198° (SSW) 1,853 4.8 -8.5°
Maximum altitude 23:08:46 35° 263° (W) 976 3.8 -8.3°
Drops below altitude 10° 23:12:40 10° 330° (NNW) 1,950 6.2 -8.1°
Sets 23:15:00 0° 339° (NNW) 2,860 7.2 -8.0°
